Change the Weather History Date:

Thursday, January 3, 2013

  Actual Average Record
Temperature  
Mean Temperature 22 °F -  
Max Temperature 28 °F 1 °F 41 °F (2005)
Min Temperature 14 °F -15 °F -44 °F (1966)
Degree Days  
Heating Degree Days 43    
Moisture  
Dew Point 11 °F    
Average Humidity 62    
Maximum Humidity 74    
Minimum Humidity 45    
Precipitation  
Precipitation 0.00 in - - ()
Snow  
Snow 0.00 in - - ()
Snow Depth 9.00 in    
Sea Level Pressure  
Sea Level Pressure 29.74 in    
Wind  
Wind Speed 10 mph (NNE)    
Max Wind Speed 18 mph    
Max Gust Speed -    
Visibility 10 miles    
Events      
Averages and records for this station are not official NWS values.
T = Trace of Precipitation, MM = Missing Value Source: NWS Daily Summary

Daily Weather History Graph

Daily Weather History Graph

Search for Another Location

Airport or City:

Trip Planner

Search our weather history database for the weather conditions in past years. The results will help you decide how hot, cold, wet, or windy it might be!

Date:

Astronomy

Jan. 03, 2013 Rise Set
Actual Time 10:04 AM AKST 3:29 PM AKST
Civil Twilight 9:00 AM AKST 4:33 PM AKST
Nautical Twilight 7:59 AM AKST 5:34 PM AKST
Astronomical Twilight 7:04 AM AKST 6:29 PM AKST
Moon No Moon Rise 11:07 AM AKST (1/3)
Length of Visible Light 7h 32m
Length of Day
5h 24m
Waning Gibbous, 64% of the Moon is Illuminated
Jan 3
Waning Gibbous
Jan 4
Last Quarter
Jan 11
New
Jan 18
First Quarter
Jan 26
Full

Hourly Weather History & Observations

Time (AKST) Temp. Windchill Dew Point Humidity Pressure Visibility Wind Dir Wind Speed Gust Speed Precip Events Conditions
12:53 AM 28.0 °F 16.5 °F 17.1 °F 63% 29.73 in 10.0 mi SSE 15.0 mph - N/A   Clear
1:53 AM 28.9 °F 16.5 °F 17.1 °F 61% 29.73 in 10.0 mi SSE 18.4 mph - N/A   Clear
3:53 AM 27.0 °F 16.1 °F 16.0 °F 63% 29.74 in 10.0 mi South 12.7 mph - N/A   Clear
4:53 AM 26.1 °F 14.5 °F 15.1 °F 63% 29.74 in 10.0 mi SSE 13.8 mph - N/A   Clear
5:53 AM 27.0 °F 17.3 °F 15.1 °F 61% 29.74 in 10.0 mi SSE 10.4 mph - N/A   Partly Cloudy
6:53 AM 25.0 °F 15.5 °F 14.0 °F 63% 29.75 in 10.0 mi SSE 9.2 mph - N/A   Partly Cloudy
7:53 AM 25.0 °F 17.1 °F 12.0 °F 58% 29.75 in 10.0 mi SSE 6.9 mph - N/A   Scattered Clouds
8:53 AM 21.0 °F - 10.9 °F 65% 29.77 in 10.0 mi Calm Calm - N/A   Scattered Clouds
9:53 AM 25.0 °F 17.1 °F 10.9 °F 55% 29.77 in 10.0 mi East 6.9 mph - N/A   Mostly Cloudy
10:53 AM 21.9 °F 15.7 °F 10.0 °F 60% 29.78 in 10.0 mi ENE 4.6 mph - N/A   Overcast
11:53 AM 24.1 °F 17.0 °F 10.0 °F 55% 29.77 in 10.0 mi East 5.8 mph - N/A   Overcast
12:53 PM 21.0 °F 14.6 °F 10.0 °F 63% 29.77 in 10.0 mi NW 4.6 mph - N/A   Overcast
1:53 PM 18.0 °F 8.7 °F 9.0 °F 68% 29.77 in 10.0 mi North 6.9 mph - N/A   Overcast
2:53 PM 18.0 °F 9.8 °F 8.1 °F 65% 29.76 in 10.0 mi North 5.8 mph - N/A   Overcast
3:53 PM 18.0 °F 8.7 °F 8.1 °F 65% 29.75 in 10.0 mi North 6.9 mph - N/A   Overcast
4:53 PM 17.1 °F 7.6 °F 8.1 °F 68% 29.75 in 10.0 mi North 6.9 mph - N/A   Overcast
5:53 PM 17.1 °F 8.7 °F 8.1 °F 68% 29.74 in 10.0 mi NNW 5.8 mph - N/A   Overcast
6:53 PM 18.0 °F 7.7 °F 8.1 °F 65% 29.74 in 10.0 mi North 8.1 mph - N/A   Overcast
7:53 PM 18.0 °F 9.8 °F 8.1 °F 65% 29.74 in 10.0 mi North 5.8 mph - N/A   Overcast
8:53 PM 18.0 °F 12.7 °F 7.0 °F 62% 29.73 in 10.0 mi NW 3.5 mph - N/A   Overcast
9:23 PM 17.1 °F 7.6 °F 8.1 °F 68% 29.62 in 10.0 mi North 6.9 mph - N/A   Overcast
9:53 PM 17.1 °F 11.7 °F 8.1 °F 68% 29.73 in 10.0 mi NNW 3.5 mph - N/A   Overcast
10:53 PM 16.0 °F 7.4 °F 7.0 °F 68% 29.74 in 10.0 mi North 5.8 mph - N/A   Overcast
11:53 PM 14.0 °F 8.2 °F 7.0 °F 74% 29.74 in 10.0 mi NNW 3.5 mph - N/A   Mostly Cloudy